Whitefield, NH

4:21 PM EDT on May 23, 2017 (GMT -0400)
Mount Washington Regional

Weather History for KHIE - June, 2013

Change the Weather History Date:

Saturday, June 22, 2013

  Actual Average Record
Temperature  
Mean Temperature 64 °F -  
Max Temperature 79 °F 76 °F 86 °F (2012)
Min Temperature 51 °F 46 °F 36 °F (2014)
Degree Days  
Heating Degree Days 1    
Growing Degree Days 14 (Base 50)    
Moisture  
Dew Point 57 °F    
Average Humidity 79    
Maximum Humidity 90    
Minimum Humidity 51    
Precipitation  
Precipitation 0.14 in - - ()
Sea Level Pressure  
Sea Level Pressure 30.19 in    
Wind  
Wind Speed 1 mph (WNW)    
Max Wind Speed 6 mph    
Max Gust Speed -    
Visibility 8 miles    
Events Rain    
Averages and records for this station are not official NWS values.
T = Trace of Precipitation, MM = Missing Value Source: NWS Daily Summary

Daily Weather History Graph

Daily Weather History Graph

Search for Another Location

Airport or City:

Trip Planner

Search our weather history database for the weather conditions in past years. The results will help you decide how hot, cold, wet, or windy it might be!

Date:

Astronomy

Jun. 22, 2013 Rise Set
Actual Time 5:02 AM EDT 8:34 PM EDT
Civil Twilight 4:25 AM EDT 9:11 PM EDT
Nautical Twilight 3:36 AM EDT 9:59 PM EDT
Astronomical Twilight 2:34 AM EDT 11:02 PM EDT
Moon 7:43 PM EDT (6/22) 4:14 AM EDT (6/22)
Length of Visible Light 16h 45m
Length of Day
15h 32m
Waxing Gibbous, 99% of the Moon is Illuminated
Jun 22
Waxing Gibbous
Jun 23
Full
Jun 30
Last Quarter
Jul 8
New
Jul 15
First Quarter

Hourly Weather History & Observations

Time (EDT) Temp. Dew Point Humidity Pressure Visibility Wind Dir Wind Speed Gust Speed Precip Events Conditions
12:52 AM 52.0 °F 48.0 °F 86% 30.24 in 10.0 mi Calm Calm - N/A   Clear
1:52 AM 51.1 °F 48.0 °F 89% 30.25 in 10.0 mi Calm Calm - N/A   Clear
2:52 AM 52.0 °F 48.0 °F 86% 30.22 in 10.0 mi Calm Calm - N/A   Clear
3:52 AM 52.0 °F 48.0 °F 86% 30.21 in 10.0 mi Calm Calm - N/A   Clear
4:52 AM 52.0 °F 48.9 °F 89% 30.22 in 10.0 mi Calm Calm - N/A   Mostly Cloudy
5:52 AM 54.0 °F 50.0 °F 86% 30.22 in 10.0 mi Calm Calm - N/A   Overcast
6:52 AM 55.9 °F 52.0 °F 87% 30.22 in 10.0 mi Calm Calm - N/A   Overcast
7:52 AM 59.0 °F 52.0 °F 78% 30.20 in 10.0 mi Calm Calm - N/A   Partly Cloudy
8:52 AM 63.0 °F 53.1 °F 70% 30.20 in 10.0 mi Calm Calm - N/A   Partly Cloudy
9:52 AM 69.1 °F 54.0 °F 58% 30.20 in 10.0 mi Calm Calm - N/A   Clear
10:52 AM 73.0 °F 57.0 °F 57% 30.21 in 10.0 mi Calm Calm - N/A   Overcast
11:52 AM 75.0 °F 55.9 °F 51% 30.20 in 10.0 mi Calm Calm - N/A   Mostly Cloudy
12:52 PM 75.9 °F 57.0 °F 52% 30.18 in 10.0 mi Calm Calm - N/A   Mostly Cloudy
1:52 PM 77.0 °F 60.1 °F 56% 30.17 in 10.0 mi WNW 4.6 mph - 0.00 in Rain Light Rain
2:52 PM 73.0 °F 62.1 °F 68% 30.18 in 6.0 mi WSW 5.8 mph - 0.01 in Rain Light Rain
3:52 PM 72.0 °F 64.0 °F 76% 30.15 in 10.0 mi NE 5.8 mph - 0.01 in   Mostly Cloudy
4:52 PM 71.1 °F 64.9 °F 81% 30.15 in 10.0 mi NW 3.5 mph - 0.00 in Rain Light Rain
5:52 PM 69.1 °F 64.0 °F 84% 30.17 in 5.0 mi Calm Calm - 0.02 in Rain Light Rain
6:27 PM 68.0 °F 64.4 °F 88% 30.17 in 2.5 mi Calm Calm - 0.03 in Rain Light Rain
6:35 PM 66.2 °F 62.6 °F 88% 30.17 in 4.0 mi WSW 3.5 mph - 0.03 in Rain Light Rain
6:52 PM 66.9 °F 62.1 °F 84% 30.18 in 4.0 mi Calm Calm - 0.04 in Rain Light Rain
7:22 PM 66.2 °F 62.6 °F 88% 30.17 in 2.5 mi Calm Calm - 0.03 in Rain Light Rain
7:32 PM 66.2 °F 62.6 °F 88% 30.17 in 4.0 mi Calm Calm - 0.04 in Rain Light Rain
7:52 PM 66.0 °F 62.1 °F 87% 30.17 in 4.0 mi Calm Calm - 0.06 in Rain Light Rain
8:52 PM 64.9 °F 61.0 °F 87% 30.16 in 6.0 mi Calm Calm - 0.00 in   Overcast
9:52 PM 64.0 °F 61.0 °F 90% 30.15 in 6.0 mi Calm Calm - N/A   Overcast
10:52 PM 64.0 °F 61.0 °F 90% 30.14 in 4.0 mi Calm Calm - N/A   Overcast
11:52 PM 64.0 °F 61.0 °F 90% 30.16 in 5.0 mi Calm Calm - N/A   Overcast